GSAT0103 (GALILEO-FM3)

Last updated on Thu Nov 21 2024 00:02:30 GMT+0000 (Coordinated Universal Time)

1 38857U 12055A 24324.03443304 .00000035 00000+0 00000+0 0 9996 2 38857 55.4793 117.3483 0002254 247.4153 112.5331 1.70473492 75209
UTC large
Height (km)
Speed (km/s)
/
Latitude / Longitude
Inclination (degrees)
Orbital Period (minutes)
Azimuth
Elevation
Range (km)
Doppler Factor

Next 0 passes for location: London (51.5072 / 0.1276)

Sorry there are no passes over London.